Change the Weather History Date:

Sunday, October 21, 2012

  Actual Average Record
Temperature  
Mean Temperature 56 °F 52 °F  
Max Temperature 73 °F 64 °F 87 °F (1963)
Min Temperature 38 °F 41 °F 24 °F (1974)
Degree Days  
Heating Degree Days 9 13  
Month to date heating degree days 229 206  
Since 1 July heating degree days 318 284  
Cooling Degree Days 0 0  
Month to date cooling degree days 2 12  
Year to date cooling degree days 1582 990  
Growing Degree Days 6 (Base 50)    
Moisture  
Dew Point 43 °F    
Average Humidity 67    
Maximum Humidity 92    
Minimum Humidity 41    
Precipitation  
Precipitation 0.00 in 0.13 in 0.33 in (2005)
Month to date precipitation 2.22 2.45  
Year to date precipitation 23.95 37.15  
Sea Level Pressure  
Sea Level Pressure 30.02 in    
Wind  
Wind Speed 6 mph (SE)    
Max Wind Speed 16 mph    
Max Gust Speed 18 mph    
Visibility 8 miles    
Events Fog    
T = Trace of Precipitation, MM = Missing Value Source: NWS Daily Summary

Daily Weather History Graph

Daily Weather History Graph

Search for Another Location

Airport or City:

Trip Planner

Search our weather history database for the weather conditions in past years. The results will help you decide how hot, cold, wet, or windy it might be!

Date:

Astronomy

Oct. 21, 2012 Rise Set
Actual Time 8:05 AM EDT 7:00 PM EDT
Civil Twilight 7:38 AM EDT 7:28 PM EDT
Nautical Twilight 7:07 AM EDT 7:59 PM EDT
Astronomical Twilight 6:36 AM EDT 8:30 PM EDT
Moon 2:25 PM EDT (10/21) No Moon Set
Length of Visible Light 11h 49m
Length of Day
10h 55m
Waxing Crescent, 45% of the Moon is Illuminated
Oct 21
Waxing Crescent
Oct 21
First Quarter
Oct 29
Full
Nov 6
Last Quarter
Nov 13
New

Hourly Weather History & Observations

Time (EDT) Temp. Windchill Dew Point Humidity Pressure Visibility Wind Dir Wind Speed Gust Speed Precip Events Conditions
12:53 AM 41.0 °F - 37.9 °F 89% 29.99 in 10.0 mi Calm Calm - N/A   Clear
1:53 AM 39.0 °F - 36.0 °F 89% 30.00 in 8.0 mi Calm Calm - N/A   Clear
2:47 AM 39.2 °F - 37.4 °F 93% 30.01 in 1.2 mi Calm Calm - N/A   Clear
2:53 AM 39.9 °F - 37.0 °F 89% 30.01 in 5.0 mi Calm Calm - N/A   Clear
3:00 AM 39.2 °F - 37.4 °F 93% 30.01 in 0.8 mi Calm Calm - N/A   Clear
3:12 AM 39.2 °F - 35.6 °F 87% 30.01 in 0.5 mi Calm Calm - N/A Fog Fog
3:18 AM 39.2 °F - 37.4 °F 93% 30.02 in 1.0 mi Calm Calm - N/A   Clear
3:24 AM 39.2 °F - 37.4 °F 93% 30.01 in 3.0 mi Calm Calm - N/A   Clear
3:53 AM 39.0 °F 36.8 °F 37.0 °F 93% 30.03 in 8.0 mi East 3.5 mph - N/A   Partly Cloudy
4:53 AM 39.0 °F - 37.0 °F 93% 30.03 in 6.0 mi Calm Calm - 0.01 in   Clear
5:53 AM 42.1 °F - 39.0 °F 89% 30.04 in 7.0 mi Calm Calm - N/A   Clear
6:53 AM 41.0 °F 39.0 °F 37.9 °F 89% 30.04 in 7.0 mi East 3.5 mph - N/A   Clear
7:53 AM 43.0 °F 41.3 °F 39.0 °F 86% 30.04 in 9.0 mi SE 3.5 mph - N/A   Clear
8:53 AM 46.9 °F - 42.1 °F 83% 30.05 in 10.0 mi SE 5.8 mph - N/A   Clear
9:53 AM 52.0 °F - 45.0 °F 77% 30.07 in 10.0 mi SSE 9.2 mph - N/A   Clear
10:53 AM 57.0 °F - 46.9 °F 69% 30.06 in 10.0 mi SSE 9.2 mph - N/A   Clear
11:53 AM 62.1 °F - 48.9 °F 62% 30.06 in 10.0 mi SE 10.4 mph - N/A   Clear
12:53 PM 66.9 °F - 48.9 °F 52% 30.05 in 10.0 mi SSE 11.5 mph - N/A   Clear
1:53 PM 70.0 °F - 48.9 °F 47% 30.03 in 10.0 mi SSE 11.5 mph - N/A   Clear
2:53 PM 71.1 °F - 48.9 °F 45% 30.01 in 10.0 mi SSE 11.5 mph - N/A   Clear
3:53 PM 73.0 °F - 48.9 °F 42% 29.99 in 10.0 mi SSE 12.7 mph 18.4 mph N/A   Clear
4:53 PM 72.0 °F - 50.0 °F 46% 29.99 in 10.0 mi South 9.2 mph - N/A   Clear
5:53 PM 72.0 °F - 48.9 °F 44% 30.00 in 10.0 mi SSE 10.4 mph - N/A   Clear
6:53 PM 66.9 °F - 50.0 °F 54% 30.01 in 10.0 mi SE 5.8 mph - N/A   Clear
7:53 PM 64.0 °F - 48.9 °F 58% 30.01 in 10.0 mi SSE 6.9 mph - N/A   Clear
8:53 PM 66.0 °F - 48.9 °F 54% 30.01 in 10.0 mi SE 5.8 mph - N/A   Mostly Cloudy
9:53 PM 64.9 °F - 50.0 °F 58% 30.01 in 10.0 mi SE 3.5 mph - N/A   Mostly Cloudy
10:53 PM 66.0 °F - 48.9 °F 54% 30.02 in 10.0 mi South 8.1 mph - N/A   Mostly Cloudy
11:53 PM 64.9 °F - 50.0 °F 58% 30.02 in 10.0 mi SSE 6.9 mph - N/A   Overcast